TimeMST,TemperatureF,Dew PointF,Humidity,Sea Level PressureIn,VisibilityMPH,Wind Direction,Wind SpeedMPH,Gust SpeedMPH,PrecipitationIn,Events,Conditions,WindDirDegrees,DateUTC
12:58 AM,79.0,63.0,58,29.84,10.0,Variable,1.2,-,N/A,,Clear,0,2013-09-01 07:58:00
1:58 AM,77.5,63.0,61,29.84,10.0,SE,5.8,-,N/A,,Clear,140,2013-09-01 08:58:00
2:58 AM,76.8,63.9,64,29.83,10.0,SE,8.1,-,N/A,,Clear,130,2013-09-01 09:58:00
3:58 AM,76.1,63.7,65,29.82,10.0,South,4.6,-,N/A,,Clear,170,2013-09-01 10:58:00
4:58 AM,74.7,63.7,69,29.83,10.0,SSE,8.1,-,N/A,,Clear,150,2013-09-01 11:58:00
5:58 AM,73.9,63.3,69,29.85,10.0,SSE,4.6,-,N/A,,Clear,150,2013-09-01 12:58:00
6:58 AM,77.0,63.5,63,29.87,10.0,SE,8.1,-,N/A,,Clear,130,2013-09-01 13:58:00
7:58 AM,81.9,63.1,53,29.86,10.0,South,5.8,-,N/A,,Clear,180,2013-09-01 14:58:00
8:58 AM,84.9,63.3,48,29.86,10.0,Variable,2.3,-,N/A,,Clear,0,2013-09-01 15:58:00
9:58 AM,86.7,62.8,45,29.85,10.0,SW,2.3,-,N/A,,Clear,220,2013-09-01 16:58:00
10:58 AM,89.8,60.8,38,29.84,10.0,SW,6.9,-,N/A,,Clear,230,2013-09-01 17:58:00
11:58 AM,92.3,59.5,33,29.84,10.0,WNW,9.2,-,N/A,,Clear,300,2013-09-01 18:58:00
12:58 PM,94.6,58.1,29,29.82,10.0,Variable,5.8,-,N/A,,Clear,0,2013-09-01 19:58:00
1:58 PM,96.3,56.5,26,29.79,10.0,NW,9.2,-,N/A,,Clear,320,2013-09-01 20:58:00
2:58 PM,96.6,58.1,28,29.76,10.0,West,9.2,-,N/A,,Clear,280,2013-09-01 21:58:00
3:58 PM,97.7,57.2,26,29.74,10.0,WNW,10.4,-,N/A,,Clear,300,2013-09-01 22:58:00
4:58 PM,97.2,57.6,27,29.74,10.0,NNW,6.9,-,N/A,,Clear,330,2013-09-01 23:58:00
5:58 PM,96.3,56.8,27,29.75,10.0,NW,12.7,-,N/A,,Clear,320,2013-09-02 00:58:00
6:58 PM,93.6,55.4,28,29.76,10.0,NNW,11.5,-,N/A,,Clear,330,2013-09-02 01:58:00
7:58 PM,91.4,55.6,30,29.78,10.0,NW,5.8,-,N/A,,Clear,310,2013-09-02 02:58:00
8:58 PM,90.0,55.9,31,29.80,10.0,WNW,5.8,-,N/A,,Clear,300,2013-09-02 03:58:00
9:58 PM,88.9,58.8,36,29.80,10.0,West,11.5,-,N/A,,Clear,260,2013-09-02 04:58:00
10:58 PM,84.4,60.8,45,29.80,10.0,WSW,5.8,-,N/A,,Partly Cloudy,250,2013-09-02 05:58:00
11:58 PM,82.9,61.2,48,29.81,10.0,WSW,5.8,-,N/A,,Partly Cloudy,240,2013-09-02 06:58:00